QFA14D EGHH-EGJJ

Flight info

Callsign QFA14D
Flight time 0h 30m
Altitude 16000
Route THRED Q41 ORTAC
Aircraft DH8D/M-SDE2E3FGRY/H

Departure

Time 2026-05-06 19:45
Airport Bournemouth Airport (EGHH)

Arrival

Time 2026-05-06 20:15
Airport Jersey Airport (EGJJ)
Time Latitude Longitude Altitude Speed Heading
2026-05-06 19:18 50.77703 -1.83564 45 ft 0 kts 266°
2026-05-06 19:38 50.77701 -1.83610 45 ft 10 kts 266°
2026-05-06 19:38 50.77700 -1.83645 45 ft 0 kts 266°
2026-05-06 19:38 50.77700 -1.83650 45 ft 1 kts 263°
2026-05-06 19:39 50.77697 -1.83672 45 ft 5 kts 255°
2026-05-06 19:39 50.77657 -1.83756 45 ft 17 kts 250°
2026-05-06 19:39 50.77699 -1.84050 45 ft 33 kts 265°
2026-05-06 19:39 50.77679 -1.84326 45 ft 13 kts 268°
2026-05-06 19:40 50.77688 -1.84444 45 ft 15 kts 282°
2026-05-06 19:40 50.77717 -1.84672 45 ft 26 kts 284°
2026-05-06 19:40 50.77740 -1.84792 45 ft 0 kts 292°
2026-05-06 19:41 50.77741 -1.84795 45 ft 3 kts 292°
2026-05-06 19:41 50.77773 -1.84902 45 ft 17 kts 298°
2026-05-06 19:41 50.77839 -1.85122 45 ft 27 kts 276°
2026-05-06 19:41 50.77802 -1.85461 45 ft 35 kts 254°
2026-05-06 19:42 50.77722 -1.85716 45 ft 18 kts 256°
2026-05-06 19:42 50.77775 -1.85658 45 ft 23 kts 86°
2026-05-06 19:42 50.77781 -1.85617 45 ft 0 kts 73°
2026-05-06 19:44 50.77788 -1.85575 45 ft 29 kts 75°
2026-05-06 19:44 50.77934 -1.84726 45 ft 121 kts 73°
2026-05-06 19:44 50.78170 -1.83226 301 ft 148 kts 75°
2026-05-06 19:44 50.78396 -1.81549 483 ft 167 kts 76°
2026-05-06 19:45 50.78367 -1.79657 686 ft 188 kts 110°
2026-05-06 19:45 50.77362 -1.78271 948 ft 204 kts 161°
2026-05-06 19:45 50.75987 -1.78321 1211 ft 200 kts 189°
2026-05-06 19:45 50.74613 -1.78612 1467 ft 198 kts 181°
2026-05-06 19:46 50.73239 -1.78625 1696 ft 196 kts 174°
2026-05-06 19:46 50.71879 -1.78436 1904 ft 195 kts 168°
2026-05-06 19:46 50.70551 -1.78094 2109 ft 194 kts 165°
2026-05-06 19:46 50.69229 -1.77632 2322 ft 193 kts 162°
2026-05-06 19:47 50.67948 -1.77093 2528 ft 192 kts 159°
2026-05-06 19:47 50.66672 -1.76489 2738 ft 192 kts 158°
2026-05-06 19:47 50.65405 -1.75838 2952 ft 192 kts 157°
2026-05-06 19:47 50.64131 -1.75142 3163 ft 192 kts 156°
2026-05-06 19:48 50.62878 -1.74429 3369 ft 192 kts 156°
2026-05-06 19:48 50.61637 -1.73703 3571 ft 192 kts 154°
2026-05-06 19:48 50.60387 -1.72960 3779 ft 192 kts 154°
2026-05-06 19:48 50.59120 -1.72191 4057 ft 200 kts 155°
2026-05-06 19:49 50.57803 -1.71382 4383 ft 206 kts 154°
2026-05-06 19:49 50.56463 -1.70550 4730 ft 209 kts 154°
2026-05-06 19:49 50.55107 -1.69712 5093 ft 212 kts 155°
2026-05-06 19:49 50.53735 -1.68854 5473 ft 213 kts 155°
2026-05-06 19:50 50.52354 -1.67988 5875 ft 214 kts 155°
2026-05-06 19:50 50.50974 -1.67128 6268 ft 215 kts 156°
2026-05-06 19:50 50.49533 -1.66770 6585 ft 213 kts 188°
2026-05-06 19:50 50.48147 -1.67557 6880 ft 209 kts 203°
2026-05-06 19:51 50.46838 -1.68469 7144 ft 206 kts 203°
2026-05-06 19:51 50.45530 -1.69382 7395 ft 205 kts 204°
2026-05-06 19:51 50.44237 -1.70285 7631 ft 204 kts 204°
2026-05-06 19:51 50.42938 -1.71188 7857 ft 204 kts 204°
2026-05-06 19:52 50.41631 -1.72093 8077 ft 204 kts 204°
2026-05-06 19:52 50.40337 -1.72989 8292 ft 204 kts 204°
2026-05-06 19:52 50.39041 -1.73883 8497 ft 204 kts 204°
2026-05-06 19:52 50.37749 -1.74774 8697 ft 205 kts 204°
2026-05-06 19:53 50.36447 -1.75670 8899 ft 205 kts 204°
2026-05-06 19:53 50.35127 -1.76578 9119 ft 213 kts 204°
2026-05-06 19:53 50.33726 -1.77551 9453 ft 226 kts 204°
2026-05-06 19:53 50.32270 -1.78556 9855 ft 234 kts 204°
2026-05-06 19:54 50.30766 -1.79589 10304 ft 239 kts 204°
2026-05-06 19:54 50.29235 -1.80638 10779 ft 243 kts 204°
2026-05-06 19:54 50.27672 -1.81707 11278 ft 246 kts 204°
2026-05-06 19:54 50.26099 -1.82781 11782 ft 249 kts 204°
2026-05-06 19:55 50.24513 -1.83865 12290 ft 251 kts 204°
2026-05-06 19:55 50.22924 -1.84949 12801 ft 253 kts 204°
2026-05-06 19:55 50.21313 -1.86048 13320 ft 255 kts 204°
2026-05-06 19:55 50.19696 -1.87149 13840 ft 256 kts 204°
2026-05-06 19:56 50.18062 -1.88262 14364 ft 257 kts 204°
2026-05-06 19:56 50.16421 -1.89378 14887 ft 259 kts 203°
2026-05-06 19:56 50.14787 -1.90489 15406 ft 260 kts 203°
2026-05-06 19:56 50.13118 -1.91623 15782 ft 268 kts 203°
2026-05-06 19:57 50.11375 -1.92806 15905 ft 278 kts 203°
2026-05-06 19:57 50.09577 -1.94022 15942 ft 289 kts 203°
2026-05-06 19:57 50.07697 -1.95294 15950 ft 299 kts 203°
2026-05-06 19:57 50.05776 -1.96593 15951 ft 307 kts 203°
2026-05-06 19:58 50.03778 -1.97943 15952 ft 313 kts 203°
2026-05-06 19:58 50.01785 -1.99288 15949 ft 315 kts 203°
2026-05-06 19:58 49.99781 -2.00637 15942 ft 309 kts 203°
2026-05-06 19:58 49.97848 -2.01936 15940 ft 303 kts 203°
2026-05-06 19:59 49.95907 -2.03243 15941 ft 298 kts 203°
2026-05-06 19:59 49.94026 -2.04508 15940 ft 295 kts 203°
2026-05-06 19:59 49.92173 -2.05754 15935 ft 292 kts 203°
2026-05-06 19:59 49.90317 -2.07001 15929 ft 290 kts 203°
2026-05-06 20:00 49.88457 -2.08251 15929 ft 287 kts 203°
2026-05-06 20:00 49.86630 -2.09478 15928 ft 285 kts 203°
2026-05-06 20:00 49.84823 -2.10690 15927 ft 284 kts 203°
2026-05-06 20:00 49.83062 -2.11868 15916 ft 270 kts 202°
2026-05-06 20:01 49.81370 -2.12996 15845 ft 260 kts 203°
2026-05-06 20:01 49.79747 -2.14079 15740 ft 253 kts 203°
2026-05-06 20:01 49.78134 -2.15154 15421 ft 252 kts 203°
2026-05-06 20:01 49.76538 -2.16218 15078 ft 250 kts 203°
2026-05-06 20:02 49.74958 -2.17268 14723 ft 246 kts 203°
2026-05-06 20:02 49.73376 -2.18321 14336 ft 244 kts 203°
2026-05-06 20:02 49.71820 -2.19357 13960 ft 242 kts 203°
2026-05-06 20:02 49.70253 -2.20289 13582 ft 240 kts 197°
2026-05-06 20:03 49.68671 -2.21008 13224 ft 236 kts 195°
2026-05-06 20:03 49.67109 -2.21694 12841 ft 231 kts 195°
2026-05-06 20:03 49.65586 -2.22363 12455 ft 227 kts 195°
2026-05-06 20:03 49.64088 -2.23023 12075 ft 223 kts 195°
2026-05-06 20:04 49.62617 -2.23672 11695 ft 218 kts 195°
2026-05-06 20:04 49.61174 -2.24310 11311 ft 214 kts 196°
2026-05-06 20:04 49.59759 -2.24936 10931 ft 211 kts 196°
2026-05-06 20:04 49.58362 -2.25555 10557 ft 207 kts 196°
2026-05-06 20:05 49.57005 -2.26156 10172 ft 203 kts 196°
2026-05-06 20:05 49.55648 -2.26757 9785 ft 199 kts 196°
2026-05-06 20:05 49.54339 -2.27337 9406 ft 196 kts 196°
2026-05-06 20:05 49.53050 -2.27908 9030 ft 192 kts 196°
2026-05-06 20:06 49.51775 -2.28473 8651 ft 189 kts 196°
2026-05-06 20:06 49.50528 -2.29025 8260 ft 186 kts 196°
2026-05-06 20:06 49.49280 -2.29577 7792 ft 189 kts 196°
2026-05-06 20:06 49.48019 -2.30136 7310 ft 193 kts 196°
2026-05-06 20:07 49.46722 -2.30711 6821 ft 197 kts 196°
2026-05-06 20:07 49.45401 -2.31297 6335 ft 201 kts 196°
2026-05-06 20:07 49.44042 -2.31899 5850 ft 206 kts 196°
2026-05-06 20:07 49.42656 -2.32513 5385 ft 208 kts 196°
2026-05-06 20:08 49.41284 -2.33121 5102 ft 202 kts 196°
2026-05-06 20:08 49.39973 -2.33701 4859 ft 195 kts 196°
2026-05-06 20:08 49.38687 -2.34269 4614 ft 188 kts 195°
2026-05-06 20:08 49.37458 -2.34811 4336 ft 183 kts 195°
2026-05-06 20:09 49.36243 -2.35347 3993 ft 182 kts 195°
2026-05-06 20:09 49.35027 -2.35882 3642 ft 182 kts 195°
2026-05-06 20:09 49.33810 -2.36419 3291 ft 182 kts 195°
2026-05-06 20:09 49.32614 -2.36944 2938 ft 179 kts 195°
2026-05-06 20:10 49.31359 -2.37500 2622 ft 202 kts 196°
2026-05-06 20:10 49.29910 -2.38157 2364 ft 234 kts 196°
2026-05-06 20:10 49.28263 -2.38893 2241 ft 252 kts 196°
2026-05-06 20:10 49.26554 -2.39650 2182 ft 256 kts 196°
2026-05-06 20:11 49.24876 -2.40382 2148 ft 241 kts 195°
2026-05-06 20:11 49.23341 -2.41045 2132 ft 220 kts 196°
2026-05-06 20:11 49.21919 -2.41630 2127 ft 202 kts 190°
2026-05-06 20:11 49.20648 -2.41322 2109 ft 177 kts 139°
2026-05-06 20:12 49.20112 -2.39907 2110 ft 143 kts 91°
2026-05-06 20:12 49.20017 -2.38302 2172 ft 171 kts 90°
2026-05-06 20:12 49.19952 -2.36251 2182 ft 204 kts 88°
2026-05-06 20:12 49.19986 -2.34088 2166 ft 207 kts 81°
2026-05-06 20:13 49.20087 -2.31891 2139 ft 198 kts 85°
2026-05-06 20:13 49.20066 -2.29908 2090 ft 176 kts 86°
2026-05-06 20:13 49.20104 -2.28083 1738 ft 167 kts 81°
2026-05-06 20:13 49.20232 -2.26296 1192 ft 171 kts 80°
2026-05-06 20:14 49.20387 -2.24459 647 ft 174 kts 80°
2026-05-06 20:14 49.20524 -2.22727 564 ft 156 kts 81°
2026-05-06 20:14 49.20663 -2.21091 356 ft 145 kts 80°
2026-05-06 20:14 49.20783 -2.19659 278 ft 122 kts 78°
2026-05-06 20:15 49.20875 -2.18693 274 ft 52 kts 82°
2026-05-06 20:15 49.20846 -2.18355 276 ft 22 kts 147°
2026-05-06 20:15 49.20755 -2.18345 276 ft 22 kts 224°
2026-05-06 20:15 49.20738 -2.18439 274 ft 14 kts 264°
2026-05-06 20:16 49.20715 -2.18744 271 ft 40 kts 265°
2026-05-06 20:16 49.20687 -2.19072 272 ft 38 kts 265°
2026-05-06 20:16 49.20701 -2.19471 277 ft 35 kts 258°
2026-05-06 20:16 49.20639 -2.19679 273 ft 0 kts 210°
2026-05-06 20:17 49.20571 -2.19702 273 ft 15 kts 174°
2026-05-06 20:17 49.20558 -2.19700 273 ft 0 kts 174°